Flag for Turkey Weather past 2 weeks in Samsun, Turkey

Now
50 °F

Partly cloudy.


Feels Like: 50 °F
Forecast: 43 / 72 °F
Wind: No wind

Location: Samsun / Carsamba

Current Time: Apr 27, 2015 at 4:54:39 AM

Latest Report: Apr 27, 2015 at 3:50 AM


Visibility: 4 mi

Pressure: 30.01 "Hg

Humidity: 94%

Dew point: 48 °F

Location of SamsunLocation

Historic Weather in Samsun — Graph

°F

Samsun temperature yesterday

Maximum temperature yesterday: 57 °F (at 12:50 PM)
Minimum temperature yesterday: 41 °F (at 5:50 AM)
Average temperature yesterday: 51 °F

Past Weeks' High & Low Weather Summary

 TemperatureHumidityPressure
High82 °F (Apr 18, 2:50 PM)100% (Apr 14, 5:50 AM)30.27 "Hg (Apr 14, 5:50 AM)
Low34 °F (Apr 16, 5:50 AM)21% (Apr 18, 2:50 PM)29.80 "Hg (Apr 18, 2:50 PM)
Average51 °F70%30.07 "Hg
* Reported Apr 12 2:50 AM — Apr 27 2:50 AM, Samsun, Weather by CustomWeather, © 2015

Note: Actual official high and low records may vary slightly from our data, if they occured in-between our weather recording intervals... More about our weather records

Advertising

Samsun weather history for previous 24 hours

 ConditionsComfort  
Time TempWeatherWind HumidityBarometerVisibility
2:50 AM
Mon, Apr 27
50 °FPartly cloudy.No wind94%30.01 "Hg4 mi
1:50 AM50 °FPartly cloudy.1 mph94%30.01 "Hg4 mi
12:50 AM50 °FPartly cloudy.5 mph94%30.04 "HgN/A
11:50 PM
Sun, Apr 26
52 °FPartly cloudy.1 mph94%30.04 "HgN/A
10:50 PM54 °FPartly cloudy.7 mph88%30.01 "HgN/A
10:04 PM54 °FSprinkles. Passing clouds.2 mph88%30.04 "Hg5 mi
9:50 PM54 °FPartly cloudy.6 mph88%30.04 "HgN/A
8:50 PM54 °FSprinkles. Passing clouds.7 mph88%30.04 "HgN/A
7:50 PM54 °FBroken clouds.12 mph88%30.01 "HgN/A
6:50 PM54 °FSprinkles. Broken clouds.7 mph88%29.98 "HgN/A
5:50 PM55 °FBroken clouds.7 mph82%29.98 "HgN/A
4:50 PM57 °FBroken clouds.6 mph77%29.98 "HgN/A
3:50 PM57 °FBroken clouds.6 mph82%29.98 "HgN/A
2:50 PM55 °FBroken clouds.8 mph82%30.01 "HgN/A
1:50 PM55 °FPartly sunny.9 mph82%30.01 "HgN/A
12:50 PM57 °FPartly sunny.7 mph82%30.04 "HgN/A
11:50 AM55 °FPartly sunny.8 mph82%30.04 "HgN/A
10:50 AM54 °FPartly sunny.8 mph88%30.04 "HgN/A
9:50 AM54 °FPartly sunny.7 mph88%30.07 "HgN/A
8:50 AM54 °FSunny.8 mph88%30.07 "Hg10 mi
7:50 AM52 °FSunny.8 mph94%30.07 "Hg10 mi
6:50 AM45 °FSunny.No wind100%30.04 "Hg10 mi
5:50 AM41 °FClear.2 mph100%30.04 "Hg10 mi
4:50 AM45 °FClear.3 mph93%30.04 "Hg10 mi
Weather by CustomWeather, © 2015

See weather overviewHow to use our weather pages